Location: Krishnamma Banjar
(17.2175°N, 80.5166°E)
Time: 03:33:49
(UTC+00:00)

Meteor 2-5 Rocket - Pass Details

Date: 03 August 2024
Orbit: 833 x 910 km, 81.2° (Epoch: 09 September)

Event Time Altitude Azimuth Distance (km) Brightness Sun altitude
Rises 23:40:51 0° 338° (NNW) 3,456 6.9 -9.3°
Reaches altitude 10° 23:43:30 10° 328° (NNW) 2,529 6.1 -8.7°
Maximum altitude 23:48:31 32° 268° (W) 1,484 4.5 -7.6°
Drops below altitude 10° 23:53:38 10° 206° (SSW) 2,567 5.8 -6.4°
Sets 23:56:22 0° 197° (SSW) 3,514 6.6 -5.8°
